Home   Weather   Porto Alegre   Past weeks

Flag for Brazil Past Weather in Porto Alegre, Rio Grande do Sul, Brazil — Yesterday and Last 2 Weeks

Now
66 °F

Passing clouds.


Feels Like: 66 °F
Forecast: 53 / 67 °F
Wind: 8 mph from Northwest

Location: Porto Alegre Aero-Porto

Current Time: Apr 26, 2017 at 7:11:50 am

Latest Report: Apr 26, 2017 at 6:00 am


Visibility: N/A

Pressure: 29.53 "Hg

Humidity: 94%

Dew Point: 64 °F

Location of Porto AlegreLocation

Past Weather in Porto Alegre — Graph

°F

Porto Alegre Temperature Yesterday

Maximum temperature yesterday: 72 °F (at 4:00 pm)
Minimum temperature yesterday: 64 °F (at 3:00 am)
Average temperature yesterday: 67 °F

High & Low Weather Summary for the Past Weeks

 TemperatureHumidityPressure
High82 °F (Apr 20, 2:00 pm)100% (Apr 14, 5:00 am)30.21 "Hg (Apr 14, 5:00 am)
Low52 °F (Apr 23, 6:00 am)41% (Apr 12, 4:00 pm)29.50 "Hg (Apr 26, 2:00 am)
Average68 °F82%30.01 "Hg
* Reported Apr 11 6:00 am — Apr 26 6:00 am, Porto Alegre, Weather by CustomWeather, © 2017

Note: Actual official high and low records may vary slightly from our data, if they occured in-between our weather recording intervals... More about our weather records

Advertising

Porto Alegre Weather History for the Previous 24 Hours

Scroll right to see more
 ConditionsComfort  
Time TempWeatherWind HumidityBarometerVisibility
6:00 am
Wed, Apr 26
66 °FPassing clouds.8 mph94%29.53 "HgN/A
5:00 am64 °FPassing clouds.8 mph100%29.50 "HgN/A
4:00 am64 °FMostly cloudy.6 mph100%29.50 "HgN/A
3:00 am66 °FMostly cloudy.3 mph94%29.53 "HgN/A
2:00 am66 °FRain. Mostly cloudy.16 mph100%29.50 "Hg3 mi
1:00 am66 °FRain. Mostly cloudy.6 mph100%29.62 "Hg2 mi
12:00 am66 °FLight rain. Mostly cloudy.7 mph100%29.62 "Hg2 mi
11:00 pm
Tue, Apr 25
66 °FThunderstorms. Passing clouds.13 mph94%29.59 "Hg2 mi
10:10 pm66 °FThunderstorms. Mostly cloudy.12 mph94%N/A2 mi
10:00 pm66 °FRain. Mostly cloudy.10 mph94%29.56 "Hg2 mi
9:00 pm68 °FLight rain. Overcast.7 mph88%29.62 "Hg3 mi
8:00 pm70 °FLight rain. Mostly cloudy.6 mph83%N/AN/A
7:00 pm68 °FLight rain. Mostly cloudy.3 mph88%N/AN/A
6:00 pm70 °FLight rain. Mostly cloudy.5 mph78%N/AN/A
5:00 pm70 °FMostly cloudy.12 mph78%29.68 "HgN/A
4:00 pm72 °FMore clouds than sun.10 mph73%29.65 "HgN/A
3:00 pm70 °FOvercast.8 mph83%29.65 "HgN/A
2:00 pm70 °FOvercast.12 mph83%29.68 "HgN/A
1:00 pm70 °FOvercast.16 mph78%29.77 "HgN/A
12:00 pm68 °FLight rain. Mostly cloudy.13 mph88%29.83 "HgN/A
11:00 am66 °FLight rain. Mostly cloudy.10 mph94%29.89 "Hg5 mi
10:00 am66 °FLight rain. Fog.13 mph94%29.92 "Hg3 mi
9:00 am66 °FLight rain. Fog.7 mph94%29.92 "Hg2 mi
8:15 am66 °FLight rain. Fog.5 mph94%N/A2 mi
8:00 am66 °FLight rain. Overcast.5 mph94%29.89 "Hg3 mi
7:00 am66 °FLight rain. Overcast.8 mph88%29.83 "Hg4 mi
Weather by CustomWeather, © 2017

See weather overviewHow to use our weather pages